DW5657 Weather Reports


Display with metric or nautical units.
time (UTC)temp
F
wind
direction
speed
MPH
gust
MPH
rain 1hr
in
rain 24hr
in
rain mn
in
humidity
%
barometer
mb
20180817034706 74 319 1.0 3.0 0.00 1.69 1.69 91 1013.9
20180817033706 74 44 1.0 3.0 0.00 1.70 1.69 91 1013.9
20180817032706 74 27 0.0 3.0 0.00 1.72 1.69 90 1013.8
20180817031706 74 27 0.0 2.0 0.00 1.73 1.69 90 1013.8
20180817030706 75 27 1.0 3.0 0.00 1.78 1.69 90 1013.9
20180817025706 75 238 0.0 1.0 0.02 1.79 1.69 90 1014.0
20180817024706 75 238 1.0 2.0 0.09 1.82 1.69 90 1013.9
20180817023707 75 238 0.0 2.0 0.12 1.83 1.69 90 1014.1
20180817022706 75 222 0.0 2.0 0.12 1.85 1.69 90 1014.1
20180817021706 75 213 1.0 3.0 0.12 1.85 1.69 90 1014.0
20180817020707 75 231 1.0 5.0 0.12 1.85 1.69 89 1013.9
20180817015706 75 270 2.0 8.0 0.10 1.83 1.67 89 1013.9
20180817014706 75 0 3.0 8.0 0.03 1.76 1.60 89 1014.1
20180817013706 75 8 1.0 2.0 0.00 1.73 1.57 88 1013.8
20180817012707 75 8 0.0 2.0 0.00 1.73 1.57 88 1014.0
20180817011706 75 8 0.0 1.0 0.00 1.73 1.57 87 1013.9
20180817010706 75 7 0.0 2.0 0.00 1.73 1.57 87 1013.9
20180817005706 75 7 0.0 1.0 0.00 1.73 1.57 87 1013.8
20180817004706 76 7 0.0 2.0 0.00 1.73 1.57 87 1013.7
20180817003707 76 7 1.0 2.0 0.00 1.73 1.57 86 1013.5
20180817002707 76 7 1.0 3.0 0.00 1.73 1.57 86 1013.7
20180817001706 77 4 1.0 3.0 0.00 1.73 1.57 85 1013.7
20180817000706 77 358 1.0 9.0 0.00 1.73 1.57 85 1013.7
20180816235707 78 298 6.0 17.0 0.00 1.73 1.57 85 1013.7
20180816234706 78 81 2.0 5.0 0.00 1.73 1.57 86 1013.4
20180816233706 78 43 0.0 3.0 0.00 1.73 1.57 85 1013.4
20180816232706 78 295 0.0 3.0 0.00 1.73 1.57 85 1013.4
20180816231706 78 303 1.0 3.0 0.00 1.73 1.57 85 1013.2
20180816230706 78 305 1.0 3.0 0.00 1.73 1.57 85 1013.3
20180816225707 79 297 1.0 3.0 0.00 1.73 1.57 85 1013.5
20180816224707 79 18 0.0 5.0 0.00 1.73 1.57 85 1013.2
20180816223707 79 328 1.0 3.0 0.00 1.73 1.57 85 1013.2
20180816222706 79 297 1.0 5.0 0.00 1.73 1.57 85 1013.1
20180816221706 79 46 1.0 3.0 0.00 1.73 1.57 86 1013.1
20180816220706 79 12 1.0 3.0 0.00 1.73 1.57 85 1013.1
20180816215706 79 56 0.0 3.0 0.00 1.73 1.57 87 1013.2
20180816214706 78 31 2.0 3.0 0.00 1.74 1.57 86 1013.3
20180816213706 78 41 2.0 7.0 0.00 1.74 1.57 86 1013.4
20180816212706 78 299 2.0 5.0 0.00 1.74 1.57 86 1013.4
20180816211706 78 320 1.0 9.0 0.00 1.74 1.57 86 1013.4
20180816210706 77 283 2.0 6.0 0.00 1.74 1.57 88 1013.5
20180816205707 77 350 1.0 8.0 0.00 1.75 1.57 88 1013.5
20180816204706 76 292 2.0 6.0 0.00 1.75 1.57 88 1013.7
20180816203706 76 335 2.0 7.0 0.00 1.75 1.57 89 1013.8
20180816202706 76 348 2.0 7.0 0.00 1.76 1.57 88 1014.0
20180816201706 76 336 4.0 7.0 0.00 1.77 1.57 88 1014.1
20180816200706 76 22 3.0 7.0 0.00 1.82 1.57 88 1014.3
20180816195706 76 347 5.0 8.0 0.00 1.92 1.57 89 1014.4
20180816194706 75 337 1.0 7.0 0.00 1.97 1.57 90 1014.4
20180816193706 74 29 2.0 6.0 0.00 1.97 1.57 91 1014.5
20180816192706 74 35 2.0 6.0 0.00 1.97 1.57 91 1014.6
20180816191706 74 287 3.0 8.0 0.00 1.97 1.57 91 1014.7
20180816190706 74 357 4.0 10.0 0.00 1.97 1.57 91 1014.8
20180816185706 74 234 2.0 7.0 0.01 1.97 1.57 92 1014.8
20180816184706 73 325 2.0 6.0 0.01 1.97 1.57 92 1014.9
20180816183706 73 273 2.0 5.0 0.01 1.97 1.57 92 1015.0
20180816182706 73 324 1.0 5.0 0.02 1.97 1.57 92 1015.1
20180816181706 72 301 1.0 9.0 0.02 1.97 1.57 92 1015.1
20180816180706 72 260 1.0 5.0 0.02 1.97 1.57 92 1015.0
20180816175706 72 0 2.0 7.0 0.03 1.96 1.56 92 1015.2
20180816174706 72 303 3.0 8.0 0.05 1.96 1.56 92 1015.2
20180816173707 72 350 3.0 10.0 0.08 1.96 1.56 92 1015.3
20180816172706 71 220 2.0 8.0 0.08 1.95 1.55 92 1015.4
20180816171706 71 359 3.0 9.0 0.10 1.95 1.55 92 1015.6
20180816170706 71 351 3.0 7.0 0.10 1.95 1.55 92 1015.7
20180816165706 71 257 3.0 8.0 0.08 1.93 1.53 92 1015.7
20180816164706 71 288 2.0 6.0 0.06 1.91 1.51 92 1015.6
20180816163706 71 41 2.0 9.0 0.03 1.88 1.48 92 1015.7
20180816162706 72 53 3.0 9.0 0.02 1.87 1.47 92 1015.7
20180816161706 72 335 5.0 12.0 0.00 1.85 1.45 92 1015.8
20180816160706 72 2 3.0 12.0 0.00 1.85 1.45 92 1015.7
20180816155706 72 330 4.0 12.0 0.00 1.85 1.45 92 1015.5
20180816154706 72 355 6.0 15.0 0.00 1.85 1.45 92 1015.6
20180816153706 71 42 5.0 12.0 0.00 1.85 1.45 93 1015.6
20180816152706 71 337 3.0 12.0 0.00 1.85 1.45 93 1015.8
20180816151706 71 11 4.0 10.0 0.04 1.85 1.45 93 1015.8
20180816150706 71 339 3.0 7.0 0.11 1.85 1.45 93 1015.7
20180816145707 71 312 5.0 12.0 0.13 1.85 1.45 93 1015.7
20180816144706 70 336 3.0 8.0 0.14 1.85 1.45 93 1015.7
20180816143707 70 22 4.0 8.0 0.15 1.85 1.45 93 1015.6
20180816142706 70 17 3.0 8.0 0.18 1.85 1.45 93 1015.4
20180816141706 70 16 3.0 8.0 0.15 1.81 1.41 93 1015.3
20180816140706 70 15 3.0 8.0 0.14 1.74 1.34 93 1015.3
20180816135706 70 280 3.0 10.0 0.17 1.72 1.32 93 1015.3
20180816134706 70 7 2.0 6.0 0.24 1.71 1.31 92 1015.6
20180816133706 70 309 2.0 5.0 0.24 1.70 1.30 92 1015.6
20180816132706 70 322 2.0 7.0 0.21 1.67 1.27 92 1015.8
20180816131706 69 279 2.0 5.0 0.20 1.66 1.26 92 1015.7
20180816130706 69 269 2.0 5.0 0.14 1.60 1.20 92 1015.6
20180816125706 69 50 1.0 3.0 0.10 1.55 1.15 92 1015.8
20180816124706 69 33 2.0 7.0 0.02 1.47 1.07 92 1015.8
20180816123706 69 340 2.0 10.0 0.01 1.46 1.06 92 1015.4
20180816122706 69 294 3.0 8.0 0.03 1.46 1.06 93 1014.9
20180816121706 69 36 3.0 6.0 0.03 1.46 1.06 92 1014.8
20180816120706 69 0 2.0 8.0 0.03 1.46 1.06 92 1014.7
20180816115706 69 273 2.0 7.0 0.02 1.45 1.05 92 1014.8
20180816114706 69 256 3.0 9.0 0.02 1.45 1.05 92 1014.6
20180816113706 69 1 2.0 7.0 0.02 1.45 1.05 92 1014.5
20180816112706 69 29 3.0 8.0 0.00 1.43 1.03 92 1014.4
20180816111706 68 41 4.0 10.0 0.00 1.43 1.03 92 1014.4
20180816110706 68 228 2.0 5.0 0.00 1.43 1.03 92 1014.2
20180816105706 68 26 2.0 3.0 0.01 1.43 1.03 92 1014.1
20180816104706 68 307 1.0 3.0 0.01 1.43 1.03 92 1014.0
20180816103707 68 239 2.0 5.0 0.01 1.43 1.03 92 1013.9
20180816102706 68 229 1.0 5.0 0.01 1.43 1.03 92 1014.1
20180816101706 68 287 2.0 3.0 0.01 1.43 1.03 92 1014.0
20180816100706 68 220 1.0 3.0 0.02 1.43 1.03 92 1014.1
20180816095705 68 295 1.0 3.0 0.01 1.42 1.02 92 1014.2
20180816094706 68 252 1.0 3.0 0.02 1.42 1.02 92 1014.2
20180816093706 69 321 2.0 5.0 0.04 1.42 1.02 92 1014.2
20180816092706 68 289 1.0 5.0 0.07 1.42 1.02 92 1014.3
20180816091706 68 328 1.0 3.0 0.09 1.42 1.02 92 1014.5
20180816090706 69 328 1.0 2.0 0.11 1.41 1.01 92 1014.7
20180816085706 69 328 1.0 7.0 0.13 1.41 1.01 92 1014.8
20180816084706 69 325 1.0 5.0 0.14 1.40 1.00 92 1014.7
20180816083706 69 21 2.0 6.0 0.23 1.38 0.98 92 1014.9
20180816082705 69 311 3.0 7.0 0.48 1.35 0.95 92 1014.9
20180816081706 69 0 2.0 5.0 0.46 1.33 0.93 92 1015.0
20180816080706 69 304 2.0 5.0 0.50 1.30 0.90 92 1014.9
20180816075706 69 212 1.0 3.0 0.54 1.28 0.88 92 1014.9
20180816074706 69 348 1.0 5.0 0.58 1.26 0.86 92 1014.9
20180816073706 69 308 3.0 9.0 0.65 1.15 0.75 92 1015.3
20180816072706 70 58 2.0 5.0 0.46 0.87 0.47 92 1014.9
20180816071706 70 41 2.0 3.0 0.46 0.87 0.47 92 1014.4
20180816070706 70 303 1.0 2.0 0.39 0.80 0.40 91 1014.3
20180816065707 69 305 1.0 3.0 0.33 0.74 0.34 91 1014.7
20180816064706 69 41 1.0 6.0 0.28 0.68 0.28 91 1014.8
20180816063706 69 9 2.0 3.0 0.10 0.50 0.10 92 1015.0
20180816062706 69 316 1.0 3.0 0.01 0.41 0.01 91 1014.3
20180816061706 69 356 1.0 3.0 0.01 0.41 0.01 91 1014.1
20180816060706 69 299 0.0 2.0 0.01 0.41 0.01 91 1014.3
20180816055706 69 299 1.0 2.0 0.01 0.41 0.01 91 1014.3
20180816054706 69 267 2.0 3.0 0.00 0.40 0.00 91 1014.2
20180816053705 69 328 0.0 3.0 0.00 0.40 0.00 91 1014.2
20180816052706 69 249 1.0 3.0 0.00 0.40 0.00 92 1014.2
20180816051706 69 233 1.0 3.0 0.00 0.40 0.00 92 1014.5
20180816050706 69 225 1.0 3.0 0.00 0.40 0.00 91 1014.3
20180816045706 69 225 0.0 2.0 0.00 0.40 0.00 91 1014.3
20180816044705 69 225 0.0 1.0 0.00 0.40 0.00 91 1014.5
20180816043706 69 225 0.0 1.0 0.01 0.40 0.00 91 1014.6
20180816042706 69 225 0.0 1.0 0.03 0.40 0.00 91 1014.5
20180816041706 69 225 0.0 2.0 0.04 0.40 0.00 91 1014.6
20180816040706 69 225 0.0 2.0 0.09 0.40 0.00 90 1014.8
20180816035706 69 224 0.0 1.0 0.10 0.40 0.40 90 1015.1